| time (UTC) | temp F | wind direction | speed MPH | gust MPH | rain 1hr in | rain 24hr in | rain mn in | humidity % | barometer mb |
| 20260831213330 | 90 | 107 | 0.0 | 1.0 | 0.00 | 0.00 | 0.00 | 64 | 1012.9 |
| 20260831212823 | 90 | 107 | 0.0 | 1.0 | 0.00 | 0.00 | 0.00 | 63 | 1012.9 |
| 20260831212318 | 90 | 32 | 0.0 | 2.0 | 0.00 | 0.00 | 0.00 | 64 | 1012.9 |
| 20260831211834 | 91 | 294 | 0.0 | 2.0 | 0.00 | 0.00 | 0.00 | 64 | 1012.9 |
| 20260831211328 | 91 | 191 | 0.0 | 2.0 | 0.00 | 0.00 | 0.00 | 64 | 1012.9 |
| 20260831210824 | 91 | 117 | 0.0 | 3.0 | 0.00 | 0.00 | 0.00 | 61 | 1012.9 |
| 20260831210357 | 91 | 240 | 1.0 | 3.0 | 0.00 | 0.00 | 0.00 | 61 | 1012.8 |
| 20260831205832 | 92 | 144 | 0.0 | 1.0 | 0.00 | 0.00 | 0.00 | 64 | 1012.8 |
| 20260831205327 | 91 | 38 | 0.0 | 1.0 | 0.00 | 0.00 | 0.00 | 65 | 1012.8 |
| 20260831204819 | 91 | 238 | 0.0 | 3.0 | 0.00 | 0.00 | 0.00 | 65 | 1012.7 |
| 20260831204334 | 91 | 355 | 1.0 | 3.0 | 0.00 | 0.00 | 0.00 | 64 | 1012.8 |
| 20260831203828 | 91 | 13 | 0.0 | 2.0 | 0.00 | 0.00 | 0.00 | 62 | 1012.9 |
| 20260831203320 | 92 | 275 | 0.0 | 2.0 | 0.00 | 0.00 | 0.00 | 61 | 1012.9 |
| 20260831202851 | 92 | 183 | 0.0 | 2.0 | 0.00 | 0.00 | 0.00 | 60 | 1013.0 |
| 20260831202323 | 92 | 350 | 0.0 | 2.0 | 0.00 | 0.00 | 0.00 | 60 | 1013.0 |
| 20260831201817 | 92 | 350 | 0.0 | 1.0 | 0.00 | 0.00 | 0.00 | 60 | 1012.9 |
| 20260831201334 | 92 | 5 | 0.0 | 2.0 | 0.00 | 0.00 | 0.00 | 63 | 1012.8 |
| 20260831200830 | 92 | 209 | 0.0 | 2.0 | 0.00 | 0.00 | 0.00 | 62 | 1012.8 |
| 20260831200325 | 92 | 123 | 0.0 | 2.0 | 0.00 | 0.00 | 0.00 | 60 | 1012.8 |
| 20260831195820 | 92 | 133 | 0.0 | 4.0 | 0.00 | 0.00 | 0.00 | 60 | 1012.7 |
| 20260831195333 | 93 | 29 | 0.0 | 4.0 | 0.00 | 0.00 | 0.00 | 58 | 1012.8 |
| 20260831194828 | 93 | 196 | 1.0 | 2.0 | 0.00 | 0.00 | 0.00 | 56 | 1012.8 |
| 20260831194322 | 93 | 126 | 0.0 | 2.0 | 0.00 | 0.00 | 0.00 | 59 | 1012.7 |
| 20260831193816 | 93 | 296 | 0.0 | 2.0 | 0.00 | 0.00 | 0.00 | 60 | 1012.9 |
| 20260831193331 | 93 | 226 | 0.0 | 2.0 | 0.00 | 0.00 | 0.00 | 61 | 1012.8 |
| 20260831192824 | 92 | 226 | 0.0 | 2.0 | 0.00 | 0.00 | 0.00 | 61 | 1012.8 |
| 20260831192318 | 92 | 229 | 0.0 | 2.0 | 0.00 | 0.00 | 0.00 | 58 | 1012.9 |
| 20260831191833 | 92 | 192 | 0.0 | 2.0 | 0.00 | 0.01 | 0.00 | 58 | 1012.8 |
| 20260831191328 | 92 | 225 | 0.0 | 1.0 | 0.00 | 0.01 | 0.00 | 58 | 1012.8 |
| 20260831190824 | 92 | 194 | 0.0 | 3.0 | 0.00 | 0.01 | 0.00 | 59 | 1012.8 |
| 20260831190319 | 92 | 207 | 1.0 | 4.0 | 0.00 | 0.01 | 0.00 | 59 | 1012.7 |
| 20260831185832 | 92 | 155 | 1.0 | 4.0 | 0.00 | 0.01 | 0.00 | 56 | 1012.7 |
| 20260831185325 | 92 | 337 | 1.0 | 3.0 | 0.00 | 0.01 | 0.00 | 58 | 1012.7 |
| 20260831184821 | 91 | 209 | 1.0 | 3.0 | 0.00 | 0.01 | 0.00 | 59 | 1012.7 |
| 20260831184317 | 91 | 250 | 1.0 | 2.0 | 0.00 | 0.01 | 0.00 | 56 | 1012.8 |
| 20260831183833 | 91 | 5 | 0.0 | 2.0 | 0.00 | 0.01 | 0.00 | 59 | 1012.9 |
| 20260831183325 | 91 | 245 | 0.0 | 3.0 | 0.00 | 0.01 | 0.00 | 61 | 1013.1 |
| 20260831182820 | 91 | 219 | 0.0 | 4.0 | 0.00 | 0.01 | 0.00 | 60 | 1013.0 |
| 20260831182317 | 91 | 140 | 1.0 | 4.0 | 0.00 | 0.01 | 0.00 | 57 | 1013.1 |
| 20260831181825 | 91 | 84 | 1.0 | 4.0 | 0.00 | 0.01 | 0.00 | 60 | 1013.1 |
| 20260831181318 | 90 | 355 | 1.0 | 4.0 | 0.00 | 0.01 | 0.00 | 58 | 1013.1 |
| 20260831180833 | 90 | 266 | 1.0 | 4.0 | 0.00 | 0.01 | 0.00 | 61 | 1013.1 |
| 20260831180326 | 90 | 237 | 0.0 | 4.0 | 0.00 | 0.01 | 0.00 | 61 | 1013.1 |
| 20260831175842 | 89 | 5 | 0.0 | 3.0 | 0.00 | 0.01 | 0.00 | 61 | 1013.1 |
| 20260831175354 | 89 | 244 | 0.0 | 2.0 | 0.00 | 0.01 | 0.00 | 62 | 1013.2 |
| 20260831174827 | 89 | 136 | 0.0 | 3.0 | 0.00 | 0.01 | 0.00 | 63 | 1012.9 |
| 20260831174322 | 89 | 312 | 1.0 | 3.0 | 0.00 | 0.01 | 0.00 | 62 | 1013.1 |
| 20260831173832 | 89 | 250 | 1.0 | 3.0 | 0.00 | 0.01 | 0.00 | 60 | 1013.2 |
| 20260831173326 | 89 | 98 | 0.0 | 3.0 | 0.00 | 0.01 | 0.00 | 66 | 1013.2 |
| 20260831172823 | 88 | 296 | 1.0 | 5.0 | 0.00 | 0.01 | 0.00 | 62 | 1013.2 |
| 20260831172317 | 88 | 240 | 0.0 | 5.0 | 0.00 | 0.01 | 0.00 | 62 | 1013.4 |
| 20260831171832 | 88 | 289 | 1.0 | 6.0 | 0.00 | 0.01 | 0.00 | 60 | 1013.3 |
| 20260831171326 | 89 | 340 | 1.0 | 6.0 | 0.00 | 0.01 | 0.00 | 60 | 1013.4 |
| 20260831170820 | 88 | 294 | 1.0 | 4.0 | 0.00 | 0.01 | 0.00 | 60 | 1013.4 |
| 20260831170354 | 88 | 314 | 1.0 | 4.0 | 0.00 | 0.01 | 0.00 | 61 | 1013.3 |
| 20260831165824 | 89 | 295 | 1.0 | 5.0 | 0.00 | 0.01 | 0.00 | 61 | 1013.3 |
| 20260831165319 | 89 | 267 | 1.0 | 5.0 | 0.00 | 0.01 | 0.00 | 58 | 1013.4 |
| 20260831164833 | 89 | 327 | 1.0 | 4.0 | 0.00 | 0.01 | 0.00 | 58 | 1013.4 |
| 20260831164326 | 89 | 273 | 1.0 | 4.0 | 0.00 | 0.01 | 0.00 | 59 | 1013.5 |
| 20260831163819 | 89 | 305 | 1.0 | 3.0 | 0.00 | 0.01 | 0.00 | 62 | 1013.4 |
| 20260831163334 | 88 | 293 | 0.0 | 4.0 | 0.00 | 0.01 | 0.00 | 62 | 1013.4 |
| 20260831162829 | 88 | 336 | 1.0 | 4.0 | 0.00 | 0.01 | 0.00 | 61 | 1013.5 |
| 20260831162323 | 88 | 300 | 1.0 | 3.0 | 0.00 | 0.01 | 0.00 | 64 | 1013.4 |
| 20260831161818 | 88 | 34 | 1.0 | 2.0 | 0.00 | 0.01 | 0.00 | 64 | 1013.3 |
| 20260831161332 | 87 | 202 | 0.0 | 3.0 | 0.00 | 0.01 | 0.00 | 63 | 1013.4 |
| 20260831160848 | 87 | 328 | 0.0 | 4.0 | 0.00 | 0.01 | 0.00 | 65 | 1013.3 |
| 20260831160321 | 86 | 254 | 1.0 | 10.0 | 0.00 | 0.01 | 0.00 | 64 | 1013.3 |
| 20260831155818 | 86 | 306 | 2.0 | 10.0 | 0.00 | 0.01 | 0.00 | 62 | 1013.2 |
| 20260831155332 | 85 | 210 | 1.0 | 5.0 | 0.00 | 0.01 | 0.00 | 66 | 1013.1 |
| 20260831154825 | 85 | 294 | 2.0 | 5.0 | 0.00 | 0.01 | 0.00 | 61 | 1013.3 |
| 20260831154318 | 85 | 267 | 1.0 | 5.0 | 0.00 | 0.01 | 0.00 | 65 | 1013.2 |
| 20260831153853 | 85 | 143 | 0.0 | 4.0 | 0.00 | 0.01 | 0.00 | 64 | 1013.2 |
| 20260831153325 | 85 | 24 | 1.0 | 4.0 | 0.00 | 0.01 | 0.00 | 66 | 1013.2 |
| 20260831152818 | 84 | 355 | 1.0 | 5.0 | 0.00 | 0.01 | 0.00 | 67 | 1013.2 |
| 20260831152333 | 84 | 289 | 1.0 | 5.0 | 0.00 | 0.01 | 0.00 | 69 | 1013.1 |
| 20260831151827 | 84 | 269 | 0.0 | 5.0 | 0.00 | 0.01 | 0.00 | 66 | 1013.2 |
| 20260831151322 | 83 | 278 | 1.0 | 5.0 | 0.00 | 0.01 | 0.00 | 66 | 1013.0 |
| 20260831150835 | 83 | 196 | 1.0 | 5.0 | 0.00 | 0.01 | 0.00 | 67 | 1013.0 |
| 20260831150344 | 83 | 120 | 1.0 | 2.0 | 0.00 | 0.01 | 0.00 | 69 | 1013.1 |
| 20260831145817 | 82 | 150 | 0.0 | 2.0 | 0.00 | 0.01 | 0.00 | 69 | 1013.1 |
| 20260831145332 | 82 | 53 | 0.0 | 3.0 | 0.00 | 0.01 | 0.00 | 68 | 1013.1 |
| 20260831144826 | 81 | 192 | 0.0 | 3.0 | 0.00 | 0.01 | 0.00 | 70 | 1012.9 |
| 20260831144320 | 81 | 12 | 0.0 | 3.0 | 0.00 | 0.01 | 0.00 | 71 | 1012.9 |
| 20260831143834 | 81 | 229 | 0.0 | 3.0 | 0.00 | 0.01 | 0.00 | 72 | 1012.9 |
| 20260831143327 | 80 | 345 | 0.0 | 3.0 | 0.00 | 0.01 | 0.00 | 72 | 1012.9 |
| 20260831142820 | 80 | 257 | 1.0 | 3.0 | 0.00 | 0.01 | 0.00 | 70 | 1013.0 |
| 20260831142335 | 79 | 315 | 0.0 | 3.0 | 0.00 | 0.01 | 0.00 | 72 | 1012.9 |
| 20260831141829 | 79 | 5 | 0.0 | 3.0 | 0.00 | 0.02 | 0.00 | 73 | 1012.8 |
| 20260831141325 | 79 | 170 | 0.0 | 3.0 | 0.00 | 0.02 | 0.00 | 72 | 1012.8 |
| 20260831140838 | 79 | 69 | 0.0 | 3.0 | 0.00 | 0.02 | 0.00 | 72 | 1012.7 |
| 20260831140332 | 79 | 321 | 1.0 | 3.0 | 0.00 | 0.02 | 0.00 | 72 | 1012.8 |
| 20260831135845 | 79 | 84 | 0.0 | 3.0 | 0.00 | 0.02 | 0.00 | 72 | 1012.7 |
| 20260831135319 | 78 | 241 | 1.0 | 11.0 | 0.00 | 0.02 | 0.00 | 72 | 1012.7 |
| 20260831134831 | 78 | 279 | 1.0 | 11.0 | 0.00 | 0.02 | 0.00 | 71 | 1012.6 |
| 20260831134345 | 78 | 190 | 1.0 | 4.0 | 0.00 | 0.02 | 0.00 | 73 | 1012.7 |
| 20260831133819 | 78 | 69 | 0.0 | 5.0 | 0.00 | 0.02 | 0.00 | 73 | 1012.6 |
| 20260831133334 | 77 | 22 | 1.0 | 5.0 | 0.00 | 0.02 | 0.00 | 72 | 1012.6 |
| 20260831132848 | 77 | 192 | 1.0 | 4.0 | 0.00 | 0.02 | 0.00 | 73 | 1012.6 |
| 20260831132322 | 77 | 289 | 1.0 | 4.0 | 0.00 | 0.02 | 0.00 | 73 | 1012.6 |
| 20260831131817 | 77 | 221 | 1.0 | 3.0 | 0.00 | 0.03 | 0.00 | 73 | 1012.6 |
| 20260831131329 | 77 | 5 | 0.0 | 3.0 | 0.00 | 0.03 | 0.00 | 74 | 1012.6 |
| 20260831130823 | 76 | 28 | 0.0 | 8.0 | 0.00 | 0.03 | 0.00 | 74 | 1012.7 |
| 20260831130318 | 76 | 5 | 1.0 | 8.0 | 0.00 | 0.03 | 0.00 | 74 | 1012.8 |
| 20260831125829 | 76 | 5 | 0.0 | 4.0 | 0.00 | 0.03 | 0.00 | 74 | 1012.7 |
| 20260831125324 | 76 | 197 | 0.0 | 2.0 | 0.00 | 0.03 | 0.00 | 73 | 1012.8 |
| 20260831124819 | 76 | 32 | 0.0 | 2.0 | 0.00 | 0.03 | 0.00 | 73 | 1012.7 |
| 20260831124353 | 76 | 126 | 0.0 | 2.0 | 0.00 | 0.03 | 0.00 | 73 | 1012.9 |
| 20260831123826 | 76 | 39 | 0.0 | 4.0 | 0.00 | 0.03 | 0.00 | 74 | 1012.8 |
| 20260831123319 | 76 | 114 | 1.0 | 4.0 | 0.00 | 0.03 | 0.00 | 73 | 1012.8 |
| 20260831122854 | 76 | 51 | 0.0 | 2.0 | 0.00 | 0.03 | 0.00 | 74 | 1012.9 |
| 20260831122328 | 76 | 290 | 0.0 | 2.0 | 0.00 | 0.03 | 0.00 | 74 | 1012.8 |
| 20260831121822 | 76 | 320 | 0.0 | 2.0 | 0.00 | 0.03 | 0.00 | 74 | 1012.8 |
| 20260831121338 | 76 | 333 | 0.0 | 4.0 | 0.00 | 0.03 | 0.00 | 74 | 1012.7 |
| 20260831120832 | 76 | 25 | 0.0 | 4.0 | 0.00 | 0.03 | 0.00 | 74 | 1012.7 |
| 20260831120326 | 75 | 307 | 0.0 | 1.0 | 0.00 | 0.03 | 0.00 | 75 | 1012.6 |
| 20260831115821 | 75 | 307 | 0.0 | 2.0 | 0.00 | 0.03 | 0.00 | 74 | 1012.6 |
| 20260831115335 | 75 | 34 | 0.0 | 2.0 | 0.00 | 0.03 | 0.00 | 74 | 1012.5 |
| 20260831114828 | 75 | 65 | 0.0 | 2.0 | 0.00 | 0.03 | 0.00 | 74 | 1012.5 |
| 20260831114323 | 75 | 243 | 0.0 | 4.0 | 0.00 | 0.03 | 0.00 | 74 | 1012.5 |
| 20260831113857 | 75 | 134 | 0.0 | 4.0 | 0.00 | 0.03 | 0.00 | 74 | 1012.5 |
| 20260831113331 | 75 | 313 | 0.0 | 3.0 | 0.00 | 0.03 | 0.00 | 74 | 1012.4 |
| 20260831112825 | 75 | 183 | 0.0 | 3.0 | 0.00 | 0.03 | 0.00 | 74 | 1012.5 |
| 20260831112321 | 75 | 16 | 0.0 | 2.0 | 0.00 | 0.03 | 0.00 | 75 | 1012.6 |
| 20260831111835 | 75 | 300 | 0.0 | 2.0 | 0.00 | 0.03 | 0.00 | 75 | 1012.6 |
| 20260831111329 | 75 | 273 | 0.0 | 2.0 | 0.00 | 0.03 | 0.00 | 75 | 1012.6 |
| 20260831110824 | 75 | 350 | 0.0 | 2.0 | 0.00 | 0.03 | 0.00 | 75 | 1012.6 |
| 20260831110318 | 75 | 331 | 0.0 | 2.0 | 0.00 | 0.03 | 0.00 | 75 | 1012.7 |
| 20260831105832 | 75 | 296 | 0.0 | 1.0 | 0.00 | 0.03 | 0.00 | 75 | 1012.6 |
| 20260831105328 | 75 | 296 | 0.0 | 1.0 | 0.00 | 0.03 | 0.00 | 75 | 1012.6 |
| 20260831104821 | 75 | 194 | 0.0 | 3.0 | 0.00 | 0.03 | 0.00 | 75 | 1012.7 |
| 20260831104316 | 75 | 46 | 0.0 | 1.0 | 0.00 | 0.03 | 0.00 | 75 | 1012.6 |
| 20260831103827 | 75 | 21 | 0.0 | 1.0 | 0.00 | 0.03 | 0.00 | 75 | 1012.7 |
| 20260831103321 | 75 | 67 | 0.0 | 2.0 | 0.00 | 0.03 | 0.00 | 75 | 1012.6 |
| 20260831102817 | 75 | 317 | 0.0 | 2.0 | 0.00 | 0.03 | 0.00 | 75 | 1012.6 |
| 20260831102332 | 75 | 49 | 0.0 | 1.0 | 0.00 | 0.03 | 0.00 | 75 | 1012.7 |
| 20260831101828 | 75 | 67 | 0.0 | 1.0 | 0.00 | 0.03 | 0.00 | 75 | 1012.6 |
| 20260831101343 | 75 | 54 | 0.0 | 1.0 | 0.00 | 0.03 | 0.00 | 75 | 1012.6 |
| 20260831100817 | 75 | 29 | 0.0 | 1.0 | 0.00 | 0.03 | 0.00 | 75 | 1012.6 |
| 20260831100333 | 75 | 15 | 0.0 | 2.0 | 0.00 | 0.03 | 0.00 | 75 | 1012.6 |
| 20260831095827 | 75 | 288 | 0.0 | 2.0 | 0.00 | 0.03 | 0.00 | 75 | 1012.6 |
| 20260831095324 | 75 | 288 | 0.0 | 1.0 | 0.00 | 0.03 | 0.00 | 75 | 1012.7 |
| 20260831094819 | 75 | 221 | 0.0 | 1.0 | 0.00 | 0.03 | 0.00 | 75 | 1012.8 |
| 20260831094334 | 75 | 94 | 0.0 | 1.0 | 0.00 | 0.03 | 0.00 | 74 | 1012.8 |
| 20260831093849 | 75 | 82 | 0.0 | 2.0 | 0.00 | 0.03 | 0.00 | 74 | 1012.8 |
| 20260831093323 | 75 | 88 | 0.0 | 2.0 | 0.00 | 0.03 | 0.00 | 75 | 1012.8 |
| 20260831092818 | 75 | 110 | 0.0 | 3.0 | 0.00 | 0.03 | 0.00 | 75 | 1012.8 |
| 20260831092333 | 75 | 300 | 0.0 | 3.0 | 0.00 | 0.03 | 0.00 | 75 | 1012.8 |
| 20260831091827 | 75 | 171 | 0.0 | 1.0 | 0.00 | 0.03 | 0.00 | 74 | 1012.7 |
| 20260831091342 | 75 | 114 | 0.0 | 1.0 | 0.00 | 0.03 | 0.00 | 75 | 1012.8 |
| 20260831090831 | 75 | 91 | 0.0 | 2.0 | 0.00 | 0.03 | 0.00 | 74 | 1012.8 |
| 20260831090324 | 75 | 55 | 0.0 | 2.0 | 0.00 | 0.03 | 0.00 | 74 | 1012.7 |
| 20260831085819 | 75 | 98 | 0.0 | 2.0 | 0.00 | 0.03 | 0.00 | 74 | 1012.7 |
| 20260831085333 | 76 | 112 | 0.0 | 2.0 | 0.00 | 0.03 | 0.00 | 73 | 1012.7 |
| 20260831084847 | 76 | 103 | 0.0 | 2.0 | 0.00 | 0.03 | 0.00 | 74 | 1012.5 |
| 20260831084320 | 76 | 163 | 0.0 | 2.0 | 0.00 | 0.03 | 0.00 | 73 | 1012.6 |
| 20260831083836 | 76 | 95 | 0.0 | 2.0 | 0.00 | 0.03 | 0.00 | 73 | 1012.5 |
| 20260831083329 | 76 | 96 | 0.0 | 2.0 | 0.00 | 0.03 | 0.00 | 73 | 1012.5 |
| 20260831082825 | 76 | 97 | 0.0 | 2.0 | 0.00 | 0.03 | 0.00 | 73 | 1012.4 |
| 20260831082321 | 76 | 105 | 0.0 | 2.0 | 0.00 | 0.03 | 0.00 | 73 | 1012.4 |
| 20260831081834 | 76 | 338 | 0.0 | 1.0 | 0.00 | 0.03 | 0.00 | 73 | 1012.4 |
| 20260831081329 | 76 | 56 | 0.0 | 1.0 | 0.00 | 0.03 | 0.00 | 73 | 1012.3 |
| 20260831080824 | 76 | 355 | 0.0 | 1.0 | 0.00 | 0.03 | 0.00 | 73 | 1012.4 |
| 20260831080318 | 76 | 23 | 0.0 | 2.0 | 0.00 | 0.03 | 0.00 | 73 | 1012.3 |
| 20260831075833 | 76 | 96 | 0.0 | 2.0 | 0.00 | 0.03 | 0.00 | 73 | 1012.4 |
| 20260831075326 | 76 | 88 | 0.0 | 2.0 | 0.00 | 0.03 | 0.00 | 73 | 1012.4 |
| 20260831074819 | 76 | 105 | 0.0 | 2.0 | 0.00 | 0.03 | 0.00 | 73 | 1012.4 |
| 20260831074330 | 76 | 113 | 0.0 | 2.0 | 0.00 | 0.03 | 0.00 | 74 | 1012.4 |
| 20260831073823 | 76 | 76 | 0.0 | 2.0 | 0.00 | 0.03 | 0.00 | 73 | 1012.5 |
| 20260831073318 | 76 | 77 | 0.0 | 2.0 | 0.00 | 0.03 | 0.00 | 73 | 1012.5 |
| 20260831072834 | 76 | 63 | 0.0 | 2.0 | 0.00 | 0.03 | 0.00 | 73 | 1012.5 |
| 20260831072328 | 76 | 30 | 0.0 | 2.0 | 0.00 | 0.03 | 0.00 | 74 | 1012.6 |
| 20260831071823 | 76 | 125 | 0.0 | 3.0 | 0.00 | 0.03 | 0.00 | 74 | 1012.7 |
| 20260831071319 | 76 | 91 | 0.0 | 3.0 | 0.00 | 0.03 | 0.00 | 74 | 1012.8 |
| 20260831070827 | 76 | 91 | 0.0 | 2.0 | 0.00 | 0.03 | 0.00 | 74 | 1012.8 |
| 20260831070319 | 76 | 138 | 0.0 | 2.0 | 0.00 | 0.03 | 0.00 | 74 | 1012.8 |
| 20260831065831 | 76 | 92 | 0.0 | 1.0 | 0.00 | 0.03 | 0.00 | 75 | 1012.8 |
| 20260831065346 | 76 | 61 | 0.0 | 1.0 | 0.00 | 0.03 | 0.00 | 75 | 1012.9 |
| 20260831064817 | 76 | 68 | 0.0 | 2.0 | 0.00 | 0.03 | 0.00 | 75 | 1012.9 |
| 20260831064332 | 76 | 70 | 0.0 | 2.0 | 0.00 | 0.03 | 0.00 | 75 | 1012.9 |
| 20260831063828 | 77 | 136 | 0.0 | 2.0 | 0.00 | 0.03 | 0.00 | 75 | 1012.9 |
| 20260831063343 | 77 | 136 | 0.0 | 2.0 | 0.00 | 0.03 | 0.00 | 75 | 1012.8 |
| 20260831062831 | 77 | 125 | 0.0 | 1.0 | 0.00 | 0.03 | 0.00 | 75 | 1012.9 |
| 20260831062325 | 77 | 124 | 0.0 | 2.0 | 0.00 | 0.03 | 0.00 | 74 | 1012.9 |
| 20260831061820 | 77 | 136 | 0.0 | 2.0 | 0.00 | 0.03 | 0.00 | 74 | 1012.9 |
| 20260831061333 | 77 | 171 | 0.0 | 3.0 | 0.00 | 0.03 | 0.00 | 74 | 1013.0 |
| 20260831060827 | 77 | 104 | 0.0 | 3.0 | 0.00 | 0.03 | 0.00 | 74 | 1013.1 |
| 20260831060322 | 77 | 127 | 0.0 | 2.0 | 0.00 | 0.03 | 0.00 | 74 | 1013.0 |
| 20260831055818 | 77 | 90 | 0.0 | 0.0 | 0.00 | 0.03 | 0.00 | 75 | 1013.1 |
| 20260831055334 | 77 | 101 | 0.0 | 1.0 | 0.00 | 0.03 | 0.00 | 74 | 1013.1 |
| 20260831054829 | 77 | 101 | 0.0 | 1.0 | 0.00 | 0.03 | 0.00 | 74 | 1013.0 |
| 20260831054322 | 77 | 38 | 0.0 | 1.0 | 0.00 | 0.03 | 0.00 | 76 | 1013.1 |
| 20260831053817 | 77 | 26 | 0.0 | 2.0 | 0.00 | 0.03 | 0.00 | 75 | 1013.0 |
| 20260831053331 | 77 | 126 | 0.0 | 2.0 | 0.00 | 0.03 | 0.00 | 74 | 1013.0 |
| 20260831052826 | 77 | 94 | 0.0 | 2.0 | 0.00 | 0.03 | 0.00 | 75 | 1013.1 |
| 20260831052322 | 77 | 154 | 0.0 | 1.0 | 0.00 | 0.03 | 0.00 | 75 | 1013.1 |
| 20260831051817 | 77 | 146 | 0.0 | 1.0 | 0.00 | 0.03 | 0.03 | 76 | 1013.2 |
| 20260831051332 | 77 | 134 | 0.0 | 2.0 | 0.00 | 0.03 | 0.03 | 76 | 1013.0 |
| 20260831050823 | 77 | 75 | 0.0 | 2.0 | 0.00 | 0.03 | 0.03 | 75 | 1013.0 |
| 20260831050354 | 78 | 111 | 0.0 | 2.0 | 0.00 | 0.03 | 0.03 | 75 | 1013.0 |
| 20260831045822 | 78 | 69 | 0.0 | 2.0 | 0.00 | 0.03 | 0.03 | 76 | 1013.0 |
| 20260831045316 | 78 | 60 | 0.0 | 2.0 | 0.00 | 0.03 | 0.03 | 76 | 1013.0 |
| 20260831044832 | 78 | 95 | 0.0 | 2.0 | 0.00 | 0.03 | 0.03 | 76 | 1013.1 |
| 20260831044325 | 78 | 114 | 0.0 | 2.0 | 0.00 | 0.03 | 0.03 | 77 | 1013.2 |
| 20260831043840 | 78 | 98 | 0.0 | 2.0 | 0.00 | 0.03 | 0.03 | 77 | 1013.3 |
| 20260831043354 | 78 | 99 | 0.0 | 2.0 | 0.00 | 0.03 | 0.03 | 78 | 1013.4 |
| 20260831042825 | 78 | 113 | 0.0 | 2.0 | 0.00 | 0.03 | 0.03 | 78 | 1013.4 |
| 20260831042320 | 78 | 111 | 0.0 | 1.0 | 0.00 | 0.03 | 0.03 | 79 | 1013.4 |
| 20260831041855 | 78 | 111 | 0.0 | 1.0 | 0.00 | 0.03 | 0.03 | 79 | 1013.4 |
| 20260831041327 | 78 | 111 | 0.0 | 2.0 | 0.00 | 0.03 | 0.03 | 79 | 1013.4 |
| 20260831040821 | 78 | 150 | 0.0 | 3.0 | 0.00 | 0.03 | 0.03 | 79 | 1013.3 |
| 20260831040318 | 78 | 151 | 1.0 | 3.0 | 0.00 | 0.03 | 0.03 | 79 | 1013.4 |
| 20260831035853 | 78 | 79 | 0.0 | 1.0 | 0.00 | 0.03 | 0.03 | 79 | 1013.4 |
| 20260831035326 | 78 | 80 | 0.0 | 2.0 | 0.00 | 0.03 | 0.03 | 79 | 1013.4 |
| 20260831034821 | 78 | 116 | 0.0 | 2.0 | 0.00 | 0.03 | 0.03 | 79 | 1013.4 |
| 20260831034336 | 78 | 87 | 0.0 | 1.0 | 0.00 | 0.03 | 0.03 | 80 | 1013.5 |
| 20260831033833 | 78 | 92 | 0.0 | 1.0 | 0.00 | 0.03 | 0.03 | 80 | 1013.6 |
| 20260831033347 | 78 | 96 | 0.0 | 2.0 | 0.00 | 0.03 | 0.03 | 80 | 1013.6 |
| 20260831032819 | 78 | 89 | 0.0 | 2.0 | 0.00 | 0.03 | 0.03 | 80 | 1013.6 |
| 20260831032317 | 78 | 122 | 0.0 | 2.0 | 0.00 | 0.03 | 0.03 | 81 | 1013.7 |
| 20260831031847 | 78 | 119 | 0.0 | 2.0 | 0.00 | 0.03 | 0.03 | 81 | 1013.8 |
| 20260831031322 | 78 | 113 | 0.0 | 1.0 | 0.00 | 0.03 | 0.03 | 81 | 1013.8 |
| 20260831030836 | 78 | 113 | 0.0 | 1.0 | 0.00 | 0.03 | 0.03 | 82 | 1013.7 |
| 20260831030330 | 78 | 119 | 0.0 | 2.0 | 0.00 | 0.03 | 0.03 | 82 | 1013.7 |
| 20260831025825 | 78 | 119 | 0.0 | 2.0 | 0.00 | 0.03 | 0.03 | 82 | 1013.7 |
| 20260831025320 | 79 | 115 | 0.0 | 2.0 | 0.00 | 0.03 | 0.03 | 82 | 1013.7 |
| 20260831024835 | 79 | 98 | 0.0 | 3.0 | 0.00 | 0.03 | 0.03 | 82 | 1013.6 |
| 20260831024330 | 79 | 98 | 0.0 | 3.0 | 0.00 | 0.03 | 0.03 | 82 | 1013.6 |
| 20260831023824 | 78 | 102 | 0.0 | 3.0 | 0.00 | 0.03 | 0.03 | 82 | 1013.6 |
| 20260831023318 | 78 | 105 | 0.0 | 2.0 | 0.00 | 0.03 | 0.03 | 82 | 1013.5 |
| 20260831022835 | 78 | 97 | 0.0 | 3.0 | 0.00 | 0.03 | 0.03 | 83 | 1013.7 |
| 20260831022328 | 78 | 121 | 1.0 | 3.0 | 0.00 | 0.03 | 0.03 | 83 | 1013.7 |
| 20260831021842 | 78 | 108 | 0.0 | 1.0 | 0.00 | 0.03 | 0.03 | 84 | 1013.6 |
| 20260831021357 | 78 | 108 | 0.0 | 1.0 | 0.00 | 0.03 | 0.03 | 84 | 1013.7 |
| 20260831020830 | 78 | 108 | 0.0 | 2.0 | 0.00 | 0.03 | 0.03 | 84 | 1013.5 |
| 20260831020324 | 78 | 108 | 0.0 | 2.0 | 0.00 | 0.03 | 0.03 | 84 | 1013.5 |
| 20260831015819 | 78 | 108 | 0.0 | 1.0 | 0.00 | 0.03 | 0.03 | 84 | 1013.4 |
| 20260831015332 | 78 | 108 | 0.0 | 1.0 | 0.00 | 0.03 | 0.03 | 85 | 1013.3 |
| 20260831014828 | 78 | 108 | 0.0 | 2.0 | 0.00 | 0.03 | 0.03 | 85 | 1013.3 |
| 20260831014322 | 78 | 108 | 0.0 | 2.0 | 0.00 | 0.03 | 0.03 | 85 | 1013.3 |
| 20260831013836 | 78 | 108 | 0.0 | 3.0 | 0.00 | 0.03 | 0.03 | 85 | 1013.2 |
| 20260831013353 | 78 | 130 | 0.0 | 2.0 | 0.00 | 0.03 | 0.03 | 85 | 1013.4 |
| 20260831012825 | 78 | 103 | 0.0 | 2.0 | 0.00 | 0.03 | 0.03 | 85 | 1013.3 |
| 20260831012318 | 78 | 116 | 0.0 | 2.0 | 0.00 | 0.03 | 0.03 | 85 | 1013.1 |
| 20260831011832 | 78 | 104 | 0.0 | 2.0 | 0.00 | 0.03 | 0.03 | 85 | 1013.2 |
| 20260831011324 | 78 | 133 | 0.0 | 1.0 | 0.00 | 0.03 | 0.03 | 85 | 1013.1 |
| 20260831010818 | 78 | 103 | 0.0 | 2.0 | 0.00 | 0.03 | 0.03 | 85 | 1013.1 |
| 20260831010332 | 78 | 117 | 0.0 | 2.0 | 0.00 | 0.03 | 0.03 | 85 | 1013.0 |
| 20260831005825 | 79 | 115 | 0.0 | 2.0 | 0.00 | 0.03 | 0.03 | 85 | 1013.0 |
| 20260831005319 | 79 | 99 | 0.0 | 2.0 | 0.00 | 0.03 | 0.03 | 85 | 1013.0 |
| 20260831004850 | 79 | 113 | 0.0 | 2.0 | 0.00 | 0.03 | 0.03 | 85 | 1013.1 |
| 20260831004322 | 79 | 105 | 0.0 | 2.0 | 0.00 | 0.03 | 0.03 | 85 | 1013.2 |
| 20260831003818 | 79 | 128 | 0.0 | 1.0 | 0.00 | 0.03 | 0.03 | 84 | 1013.3 |
| 20260831003329 | 79 | 139 | 0.0 | 1.0 | 0.00 | 0.03 | 0.03 | 84 | 1013.3 |
| 20260831002844 | 79 | 107 | 0.0 | 2.0 | 0.00 | 0.03 | 0.03 | 84 | 1013.3 |
| 20260831002320 | 79 | 113 | 0.0 | 3.0 | 0.00 | 0.03 | 0.03 | 84 | 1013.2 |
| 20260831001834 | 79 | 104 | 0.0 | 3.0 | 0.00 | 0.03 | 0.03 | 84 | 1013.3 |
| 20260831001348 | 79 | 98 | 0.0 | 1.0 | 0.00 | 0.03 | 0.03 | 84 | 1013.3 |
| 20260831000823 | 79 | 98 | 0.0 | 1.0 | 0.00 | 0.03 | 0.03 | 84 | 1013.4 |
| 20260831000318 | 79 | 98 | 0.0 | 1.0 | 0.00 | 0.03 | 0.03 | 84 | 1013.4 |
| 20260830235850 | 79 | 98 | 0.0 | 1.0 | 0.00 | 0.03 | 0.03 | 84 | 1013.4 |
| 20260830235344 | 79 | 98 | 0.0 | 1.0 | 0.00 | 0.03 | 0.03 | 84 | 1013.4 |
| 20260830234819 | 79 | 98 | 0.0 | 0.0 | 0.00 | 0.03 | 0.03 | 84 | 1013.5 |
| 20260830234355 | 79 | 98 | 0.0 | 0.0 | 0.00 | 0.03 | 0.03 | 84 | 1013.5 |
| 20260830233825 | 80 | 98 | 0.0 | 0.0 | 0.00 | 0.03 | 0.03 | 84 | 1013.5 |
| 20260830233320 | 80 | 98 | 0.0 | 1.0 | 0.00 | 0.03 | 0.03 | 83 | 1013.7 |
| 20260830232817 | 80 | 98 | 0.0 | 1.0 | 0.00 | 0.03 | 0.03 | 83 | 1013.7 |
| 20260830232332 | 80 | 98 | 0.0 | 1.0 | 0.00 | 0.03 | 0.03 | 83 | 1013.6 |
| 20260830231824 | 80 | 98 | 0.0 | 0.0 | 0.00 | 0.03 | 0.03 | 83 | 1013.7 |
| 20260830231354 | 80 | 88 | 0.0 | 1.0 | 0.00 | 0.03 | 0.03 | 83 | 1013.8 |
| 20260830230828 | 79 | 88 | 0.0 | 1.0 | 0.00 | 0.03 | 0.03 | 83 | 1013.7 |
| 20260830230343 | 79 | 123 | 0.0 | 1.0 | 0.00 | 0.03 | 0.03 | 84 | 1013.7 |
| 20260830225817 | 79 | 129 | 0.0 | 0.0 | 0.00 | 0.03 | 0.03 | 83 | 1013.5 |
| 20260830225353 | 79 | 129 | 0.0 | 1.0 | 0.00 | 0.03 | 0.03 | 83 | 1013.5 |
| 20260830224825 | 79 | 129 | 0.0 | 2.0 | 0.00 | 0.03 | 0.03 | 82 | 1013.4 |
| 20260830224319 | 79 | 129 | 0.0 | 2.0 | 0.00 | 0.03 | 0.03 | 82 | 1013.4 |
| 20260830223834 | 79 | 94 | 0.0 | 1.0 | 0.00 | 0.03 | 0.03 | 82 | 1013.3 |
| 20260830223328 | 79 | 96 | 0.0 | 1.0 | 0.00 | 0.03 | 0.03 | 82 | 1013.3 |
| 20260830222824 | 79 | 92 | 0.0 | 0.0 | 0.00 | 0.03 | 0.03 | 83 | 1013.3 |
| 20260830222318 | 79 | 92 | 0.0 | 1.0 | 0.00 | 0.03 | 0.03 | 83 | 1013.3 |
| 20260830221833 | 79 | 92 | 0.0 | 1.0 | 0.00 | 0.03 | 0.03 | 84 | 1013.3 |
| 20260830221328 | 78 | 91 | 0.0 | 1.0 | 0.00 | 0.03 | 0.03 | 85 | 1013.3 |
| 20260830220824 | 78 | 91 | 0.0 | 1.0 | 0.00 | 0.03 | 0.03 | 85 | 1013.2 |
| 20260830220338 | 78 | 115 | 0.0 | 1.0 | 0.00 | 0.03 | 0.03 | 86 | 1013.1 |
| 20260830215832 | 78 | 115 | 0.0 | 0.0 | 0.00 | 0.03 | 0.03 | 86 | 1013.8 |
| 20260830215325 | 78 | 115 | 0.0 | 0.0 | 0.00 | 0.03 | 0.03 | 86 | 1013.7 |
| 20260830214820 | 78 | 115 | 0.0 | 1.0 | 0.00 | 0.03 | 0.03 | 86 | 1013.8 |
| 20260830214334 | 78 | 115 | 0.0 | 1.0 | 0.00 | 0.03 | 0.03 | 86 | 1014.0 |
| 20260830213828 | 78 | 73 | 0.0 | 0.0 | 0.00 | 0.03 | 0.03 | 86 | 1014.0 |